TimeCST,TemperatureF,Dew PointF,Humidity,Sea Level PressureIn,VisibilityMPH,Wind Direction,Wind SpeedMPH,Gust SpeedMPH,PrecipitationIn,Events,Conditions,WindDirDegrees,DateUTC
12:19 AM,23.0,19.4,86,29.65,6.0,South,5.8,-,N/A,,Overcast,190,2013-01-19 06:19:00
12:53 AM,23.0,19.9,88,29.72,7.0,Calm,Calm,-,N/A,,Overcast,0,2013-01-19 06:53:00
1:53 AM,16.0,14.0,92,29.71,4.0,SSE,8.1,-,N/A,,Partly Cloudy,160,2013-01-19 07:53:00
2:53 AM,17.1,15.1,92,29.72,2.5,Calm,Calm,-,N/A,,Partly Cloudy,0,2013-01-19 08:53:00
3:10 AM,17.6,15.8,93,29.65,0.8,Calm,Calm,-,N/A,,Clear,0,2013-01-19 09:10:00
3:30 AM,15.8,14.0,93,29.64,2.0,South,5.8,-,N/A,,Clear,170,2013-01-19 09:30:00
3:42 AM,17.6,15.8,93,29.63,4.0,SSE,4.6,-,N/A,,Clear,160,2013-01-19 09:42:00
3:53 AM,18.0,16.0,92,29.70,4.0,SSE,5.8,-,N/A,,Clear,160,2013-01-19 09:53:00
4:53 AM,17.1,15.1,92,29.70,4.0,SSE,4.6,-,N/A,,Clear,160,2013-01-19 10:53:00
5:53 AM,15.1,12.9,91,29.69,3.0,South,4.6,-,N/A,,Clear,170,2013-01-19 11:53:00
6:20 AM,15.8,12.2,86,29.61,1.8,SW,4.6,-,N/A,,Clear,220,2013-01-19 12:20:00
6:45 AM,14.0,10.4,86,29.62,0.5,WSW,8.1,-,N/A,Fog,Light Freezing Fog,250,2013-01-19 12:45:00
6:53 AM,14.0,10.9,88,29.70,1.2,West,10.4,-,N/A,,Clear,260,2013-01-19 12:53:00
6:58 AM,15.8,12.2,86,29.61,3.0,West,11.5,-,N/A,,Clear,270,2013-01-19 12:58:00
7:53 AM,26.1,23.0,88,29.70,10.0,WNW,13.8,-,N/A,,Overcast,300,2013-01-19 13:53:00
8:32 AM,26.6,24.8,93,29.64,10.0,NW,17.3,24.2,N/A,,Overcast,310,2013-01-19 14:32:00
8:53 AM,27.0,24.1,89,29.72,10.0,WNW,23.0,28.8,N/A,,Overcast,300,2013-01-19 14:53:00
9:53 AM,26.1,21.0,81,29.74,6.0,WNW,27.6,36.8,N/A,,Haze,300,2013-01-19 15:53:00
10:10 AM,24.8,19.4,80,29.68,2.5,WNW,29.9,42.6,0.00,Snow,Blowing Snow,300,2013-01-19 16:10:00
10:19 AM,24.8,19.4,80,29.68,5.0,WNW,28.8,34.5,0.00,,Haze,300,2013-01-19 16:19:00
10:53 AM,19.0,12.9,77,29.79,6.0,WNW,24.2,33.4,0.00,,Haze,290,2013-01-19 16:53:00
11:20 AM,15.8,8.6,73,29.73,5.0,WNW,28.8,38.0,0.00,,Partly Cloudy,300,2013-01-19 17:20:00
11:33 AM,14.0,8.6,79,29.73,2.5,WNW,25.3,33.4,0.00,Snow,Light Snow,300,2013-01-19 17:33:00
11:43 AM,14.0,6.8,73,29.73,1.5,WNW,23.0,32.2,0.00,Snow,Light Snow,300,2013-01-19 17:43:00
11:50 AM,12.2,6.8,79,29.74,1.5,WNW,29.9,34.5,0.00,Snow,Light Snow,290,2013-01-19 17:50:00
11:53 AM,12.9,7.0,77,29.83,1.0,WNW,26.5,34.5,0.00,Snow,Light Snow,300,2013-01-19 17:53:00
12:00 PM,12.2,6.8,79,29.74,0.8,WNW,27.6,35.7,0.00,Snow,Light Snow,300,2013-01-19 18:00:00
12:22 PM,10.4,3.2,73,29.76,1.2,WNW,27.6,38.0,0.00,Snow,Light Snow,300,2013-01-19 18:22:00
12:53 PM,9.0,1.0,70,29.87,1.8,NW,25.3,39.1,0.00,Snow,Blowing Snow,310,2013-01-19 18:53:00
12:58 PM,8.6,-0.4,67,29.78,3.0,NW,24.2,38.0,N/A,Snow,Blowing Snow,310,2013-01-19 18:58:00
1:16 PM,6.8,-0.4,72,29.79,1.8,NW,28.8,-,0.00,,Overcast,310,2013-01-19 19:16:00
1:35 PM,6.8,-2.2,67,29.80,3.0,WNW,27.6,40.3,0.00,Snow,Blowing Snow,300,2013-01-19 19:35:00
1:41 PM,6.8,-2.2,67,29.81,1.8,WNW,31.1,41.4,0.00,Snow,Blowing Snow,300,2013-01-19 19:41:00
1:53 PM,6.1,-2.0,69,29.92,1.2,WNW,31.1,40.3,0.00,Snow,Blowing Snow,300,2013-01-19 19:53:00
2:06 PM,3.2,-5.8,66,29.83,2.5,NW,33.4,42.6,0.00,Snow,Blowing Snow,310,2013-01-19 20:06:00
2:28 PM,3.2,-5.8,66,29.84,1.8,WNW,28.8,40.3,0.00,Snow,Blowing Snow,300,2013-01-19 20:28:00
2:33 PM,3.2,-5.8,66,29.85,3.0,WNW,21.9,38.0,0.00,Snow,Blowing Snow,300,2013-01-19 20:33:00
2:49 PM,3.2,-5.8,66,29.86,1.8,WNW,29.9,39.1,0.00,Snow,Blowing Snow,300,2013-01-19 20:49:00
2:53 PM,3.0,-5.1,69,29.97,1.5,WNW,28.8,40.3,0.00,Snow,Light Snow,300,2013-01-19 20:53:00
3:06 PM,1.4,-7.6,66,29.88,3.0,WNW,26.5,39.1,0.00,Snow,Blowing Snow,300,2013-01-19 21:06:00
3:34 PM,1.4,-7.6,66,29.91,2.0,NW,24.2,33.4,0.00,,Overcast,310,2013-01-19 21:34:00
3:53 PM,-0.0,-8.0,69,30.04,2.0,NW,24.2,36.8,0.00,,Overcast,320,2013-01-19 21:53:00
4:06 PM,-0.4,-7.6,72,29.95,4.0,NW,18.4,28.8,0.00,,Haze,310,2013-01-19 22:06:00
4:53 PM,-0.0,-8.0,69,30.09,6.0,NW,17.3,29.9,0.00,,Haze,310,2013-01-19 22:53:00
5:53 PM,-0.9,-9.0,69,30.14,9.0,NW,20.7,28.8,N/A,,Overcast,310,2013-01-19 23:53:00
6:53 PM,-2.0,-9.0,72,30.19,7.0,NW,17.3,26.5,N/A,,Overcast,320,2013-01-20 00:53:00
7:49 PM,-2.2,-11.2,66,30.11,10.0,NNW,12.7,23.0,N/A,,Scattered Clouds,330,2013-01-20 01:49:00
7:53 PM,-2.9,-11.0,68,30.22,10.0,NNW,16.1,23.0,N/A,,Partly Cloudy,330,2013-01-20 01:53:00
8:53 PM,-5.1,-11.9,72,30.26,10.0,NW,15.0,-,N/A,,Partly Cloudy,320,2013-01-20 02:53:00
9:53 PM,-6.0,-14.1,68,30.28,10.0,NW,12.7,-,N/A,,Clear,320,2013-01-20 03:53:00
10:53 PM,-7.6,-14.8,71,30.19,10.0,NW,11.5,-,N/A,,Clear,320,2013-01-20 04:53:00
11:53 PM,-9.4,-14.8,77,30.21,10.0,WNW,10.4,-,N/A,,Clear,290,2013-01-20 05:53:00